User: anonymous   Login
Location: Killarney Provincial Park Observatory
(46.0124°N, 81.4000°W)
Time: 16:46:13
(UTC-04:00)
Language:

Iridium 22 - Orbit

View from above orbital plane
View from above orbital plane
View from above satellite
View from above satellite

Ground track
Ground track

The orbit data is extracted from the following two-line orbital elements,

1 24907U 97043E   16212.48909056 -.00000042  00000-0 -21913-4 0  9996
2 24907  86.3949  30.5574 0002073  84.3602 275.7830 14.34216455991716
Epoch (UTC): 30 July 2016 11:44:17
Eccentricity: 0.0002073
inclination: 86.3949°
perigee height: 776 km
apogee height: 779 km
right ascension of ascending node: 30.5574°
argument of perigee: 84.3602°
revolutions per day: 14.34216455
mean anomaly at epoch: 275.7830°
orbit number at epoch: 99171

The dashed part of the orbit path shows where the satellite is in the earth's shadow,  

DLR